Regional Weather Roundup
Issued by NWS Jackson, KY

Home | Current Version | Previous Version | Graphics & Text | Print | Product List | Glossary On
Versions: 1 2 3 4 5 6 7 8 9 10 11 12 13 14 15 16 17 18 19 20 21 22 23 24 25 26 27 28 29 30 31 32 33 34 35 36 37 38 39 40 41 42 43 44 45 46 47 48 49 50
000
ASUS43 KJKL 231010
RWRJKL

EAST KENTUCKY HOURLY WEATHER ROUNDUP
NATIONAL WEATHER SERVICE JACKSON KY
500 AM EST THU FEB 23 2017

NOTE: "FAIR" INDICATES FEW OR NO CLOUDS BELOW 12,000 FEET WITH
NO SIGNIFICANT WEATHER AND/OR OBSTRUCTIONS TO VISIBILITY.

* THESE REPORTS ARE NOT UNDER NWS QUALITY CONTROL AND MAY NOT
  REPORT WEATHER SUCH AS PRECIPITATION AND FOG.

KYZ079-080-083-085-087-088-110-112-115-119-120-231100
...EASTERN KENTUCKY...

CITY           SKY/WX    TMP DP  RH WIND       PRES   REMARKS
JACKSON        CLEAR     52  50  93 SW3       29.86R
LONDON         FOG       47  45  93 CALM      29.87R VSB 1/4
SOMERSET*      CLEAR     52  52 100 CALM      29.88R FOG
MONTICELLO*    FOG       48  48 100 N8        29.88R VSB 3/4
WILLIAMSBURG*  PTSUNNY   46  46 100 CALM      29.87R VSB 1/2
MIDDLESBORO*   FOG       45  45 100 CALM      29.90R VSB 1/2
HARLAN APT*    CLOUDY    48  46  93 CALM      29.90R VSB 1/4
PIKE CO APT*     N/A     53  53 100 CALM      29.88R
BIG SANDY APT* PTSUNNY   53  53  99 S3        29.87R FOG
MOREHEAD APT*  CLOUDY    54  52  94 CALM      29.87R
ASHLAND*       MOCLDY    50  48  93 CALM      29.83R
$$

KYZ035-036-041-042-044-050-067-078-099-231100
...CENTRAL KENTUCKY...

CITY           SKY/WX    TMP DP  RH WIND       PRES   REMARKS
MT STERLING*   PTCLDY    54  54 100 SW6       29.86R
FLEMING/MASON* CLOUDY    54  53  98 SW7       29.85R
DANVILLE*      PTCLDY    52  52 100 CALM      29.86R
LEXINGTON      MOCLDY    54  52  93 S6        29.84R
FRANKFORT      CLOUDY    57  52  83 S5        29.82R
LOUISVILLE     MOCLDY    62  55  77 SW6       29.81R
LEBANON*         N/A     57  55  94 S8        29.84R
GLASGOW*       PTCLDY   N/A N/A N/A CALM      29.83S
BOWLING GREEN  CLEAR     59  55  87 SW5       29.83R
$$

KYZ091>093-OHZ055-061-077-WVZ005-015-034-035-042-231100
...SOUTHERN OHIO/WEST VIRGINIA...

CITY           SKY/WX    TMP DP  RH WIND       PRES   REMARKS
COVINGTON      CLOUDY    60  56  86 SW7       29.80S
COLUMBUS       CLOUDY    57  54  89 S6        29.78S
DAYTON         CLOUDY    56  54  93 SW12      29.78R
WILMINGTON     CLOUDY    57  55  93 SW9       29.79S
HUNTINGTON     CLEAR     51  49  92 S6        29.83S
CHARLESTON     MOCLDY    49  48  97 CALM      29.86R FOG
PINEVILLE*     FOG       46  44  91 MISG      29.95R VSB 1/2
BECKLEY        MOCLDY    48  47  96 S5        29.91R
BLUEFIELD      PTCLDY    50  46  86 CALM      29.92S
LOGAN CO APT*    N/A     54  52  94 CALM      29.88R
$$

VAZ002-007-008-TNZ017-027-036-066-071-231100
...SOUTHWEST VIRGINIA/EAST TENNESSEE...

CITY           SKY/WX    TMP DP  RH WIND       PRES   REMARKS
WISE*          CLEAR     48  48 100 CALM      29.92R
JONESVILLE*    FOG       45  45 100 CALM      29.93R VSB 1/4
ABINGDON*      CLEAR     46  46 100 E3        29.91S
BRISTOL        FOG       45  44  97 CALM      29.91R VSB 1/16
MORRISTOWN*    FOG       48  48 100 CALM      29.89R VSB 0
SEVIERVILLE*   CLOUDY    50  50 100 CALM      29.90R VSB 1/4
KNOXVILLE      FOG       54  53  97 CALM      29.89R VSB 1/8
LAFOLLETTE*    CLOUDY    54  54 100 CALM      29.92R FOG
OAK RIDGE      FOG       52  51  97 CALM      29.90R VSB 1/4
CROSSVILLE     CLEAR     52  51  97 VRB3      29.89S FOG
NASHVILLE      CLEAR     54  52  93 S5        29.83F FOG
$$

...KEY TO REMARKS...
VSB - VISIBILITY IN MILES
WCI - WIND CHILL INDEX
HX  - HEAT INDEX

$$



USA.gov is the U.S. government's official web portal to all federal, state and local government web resources and services.